TimeEDT,TemperatureF,Dew PointF,Humidity,Sea Level PressureIn,VisibilityMPH,Wind Direction,Wind SpeedMPH,Gust SpeedMPH,PrecipitationIn,Events,Conditions,WindDirDegrees,DateUTC
12:56 AM,50.0,45.0,83,30.11,-9999.0,South,4.6,-,N/A,,Unknown,180,2013-07-01 04:56:00
1:56 AM,48.9,44.1,83,30.12,-9999.0,South,4.6,-,N/A,,Unknown,190,2013-07-01 05:56:00
2:56 AM,48.0,43.0,83,30.12,-9999.0,South,4.6,-,N/A,,Unknown,180,2013-07-01 06:56:00
3:56 AM,46.9,42.1,83,30.13,-9999.0,South,4.6,-,N/A,,Unknown,180,2013-07-01 07:56:00
4:56 AM,46.0,42.1,86,30.14,-9999.0,South,3.5,-,N/A,,Unknown,170,2013-07-01 08:56:00
5:56 AM,46.0,42.1,86,30.14,-9999.0,South,5.8,-,N/A,,Unknown,180,2013-07-01 09:56:00
6:56 AM,48.0,43.0,83,30.16,-9999.0,South,4.6,-,N/A,,Unknown,180,2013-07-01 10:56:00
7:56 AM,53.1,46.0,77,30.17,-9999.0,Calm,Calm,-,N/A,,Unknown,0,2013-07-01 11:56:00
8:56 AM,57.9,50.0,75,30.19,-9999.0,NNE,4.6,-,N/A,,Unknown,30,2013-07-01 12:56:00
9:56 AM,59.0,50.0,72,30.20,-9999.0,NE,6.9,-,N/A,,Unknown,40,2013-07-01 13:56:00
10:56 AM,61.0,51.1,70,30.20,-9999.0,NE,8.1,-,N/A,,Unknown,40,2013-07-01 14:56:00
11:56 AM,60.1,52.0,75,30.22,-9999.0,NE,9.2,-,N/A,,Unknown,40,2013-07-01 15:56:00
12:56 PM,60.1,51.1,72,30.22,-9999.0,NNE,13.8,-,N/A,,Unknown,20,2013-07-01 16:56:00
1:56 PM,61.0,50.0,67,30.22,-9999.0,NNE,10.4,-,N/A,,Unknown,30,2013-07-01 17:56:00
2:56 PM,61.0,48.0,62,30.23,-9999.0,NE,9.2,-,N/A,,Unknown,40,2013-07-01 18:56:00
3:56 PM,59.0,46.9,64,30.23,-9999.0,North,15.0,-,N/A,,Unknown,10,2013-07-01 19:56:00
4:56 PM,60.1,46.0,60,30.22,-9999.0,North,13.8,-,N/A,,Unknown,10,2013-07-01 20:56:00
5:56 PM,61.0,45.0,56,30.22,-9999.0,NE,11.5,-,N/A,,Unknown,40,2013-07-01 21:56:00
6:56 PM,61.0,44.1,54,30.22,-9999.0,NNE,10.4,-,N/A,,Unknown,30,2013-07-01 22:56:00
7:20 PM,57.2,46.4,67,30.21,-9999.0,NW,13.8,-,N/A,,Unknown,320,2013-07-01 23:20:00
7:56 PM,57.0,46.0,67,30.22,-9999.0,NNW,11.5,-,N/A,,Unknown,330,2013-07-01 23:56:00
8:56 PM,55.9,46.0,69,30.22,-9999.0,NNE,8.1,-,N/A,,Unknown,20,2013-07-02 00:56:00
9:56 PM,54.0,44.1,69,30.22,-9999.0,NNW,4.6,-,N/A,,Unknown,340,2013-07-02 01:56:00
10:56 PM,46.9,41.0,80,30.22,-9999.0,South,3.5,-,N/A,,Unknown,180,2013-07-02 02:56:00
11:56 PM,45.0,39.9,82,30.22,-9999.0,South,5.8,-,N/A,,Unknown,180,2013-07-02 03:56:00